EW4711 Weather Reports


Display with metric or nautical units.
time (UTC)temp
F
wind
direction
speed
MPH
gust
MPH
rain 1hr
in
rain 24hr
in
rain mn
in
humidity
%
barometer
mb
20260510200603 58 322 11.0 18.0 0.00 0.21 0.01 49 1016.2
20260510195603 57 345 10.0 21.0 0.00 0.21 0.01 43 1016.2
20260510195103 58 306 7.0 14.0 0.00 0.21 0.01 44 1016.2
20260510194603 59 344 9.0 22.0 0.00 0.21 0.01 47 1016.1
20260510194104 57 302 6.0 10.0 0.00 0.21 0.01 46 1016.1
20260510193603 57 307 9.0 17.0 0.00 0.21 0.01 46 1016.0
20260510193102 58 351 10.0 20.0 0.00 0.21 0.01 45 1016.1
20260510192102 58 342 6.0 13.0 0.00 0.21 0.01 50 1016.0
20260510191602 58 327 3.0 12.0 0.00 0.21 0.01 46 1016.0
20260510191103 58 341 7.0 12.0 0.00 0.21 0.01 49 1016.0
20260510190602 57 11 7.0 18.0 0.00 0.21 0.01 47 1016.0
20260510185603 57 335 8.0 16.0 0.00 0.21 0.01 44 1016.0
20260510185103 57 351 3.0 12.0 0.00 0.21 0.01 49 1015.9
20260510184603 57 345 10.0 21.0 0.00 0.21 0.01 47 1016.0
20260510184102 57 345 9.0 17.0 0.00 0.21 0.01 46 1016.0
20260510183603 57 9 7.0 17.0 0.00 0.21 0.01 47 1015.9
20260510183103 56 355 7.0 17.0 0.00 0.21 0.01 49 1015.9
20260510182603 56 352 9.0 17.0 0.00 0.21 0.01 48 1015.9
20260510182103 56 314 9.0 17.0 0.00 0.21 0.01 46 1015.9
20260510181603 56 335 8.0 15.0 0.00 0.21 0.01 49 1015.9
20260510180603 56 320 5.0 12.0 0.00 0.21 0.01 47 1015.8
20260510180103 56 304 9.0 16.0 0.00 0.21 0.01 53 1015.9
20260510175603 56 305 6.0 16.0 0.00 0.21 0.01 50 1015.9
20260510175103 56 331 9.0 17.0 0.00 0.21 0.01 51 1015.8
20260510174604 56 0 9.0 15.0 0.00 0.21 0.01 49 1015.8
20260510174103 56 321 7.0 15.0 0.00 0.21 0.01 54 1015.8
20260510173603 56 347 6.0 13.0 0.00 0.21 0.01 53 1015.8
20260510172603 56 285 5.0 16.0 0.00 0.21 0.01 53 1015.6
20260510172102 56 316 8.0 14.0 0.00 0.21 0.01 54 1015.6
20260510171603 55 314 9.0 17.0 0.00 0.21 0.01 49 1015.6
20260510171103 55 296 7.0 17.0 0.00 0.21 0.01 50 1015.5
20260510170104 55 307 9.0 15.0 0.00 0.21 0.01 53 1015.4
20260510165603 55 343 7.0 15.0 0.00 0.21 0.01 50 1015.5
20260510165103 55 341 7.0 16.0 0.00 0.21 0.01 52 1015.4
20260510164602 55 351 9.0 14.0 0.00 0.21 0.01 49 1015.4
20260510164103 56 305 9.0 14.0 0.00 0.21 0.01 52 1015.4
20260510163603 56 313 6.0 12.0 0.00 0.21 0.01 58 1015.4
20260510163104 55 316 5.0 13.0 0.00 0.21 0.01 55 1015.4
20260510162603 55 324 4.0 13.0 0.00 0.21 0.01 52 1015.4
20260510162103 54 330 10.0 17.0 0.00 0.21 0.01 52 1015.5
20260510161103 54 334 9.0 17.0 0.00 0.21 0.01 54 1015.4
20260510160603 54 339 8.0 15.0 0.00 0.21 0.01 52 1015.4
20260510155603 54 324 6.0 12.0 0.00 0.21 0.01 56 1015.3
20260510155103 53 345 5.0 20.0 0.00 0.21 0.01 56 1015.3
20260510154603 53 352 9.0 16.0 0.00 0.21 0.01 51 1015.3
20260510154103 53 313 10.0 17.0 0.00 0.21 0.01 52 1015.4
20260510153603 53 336 10.0 14.0 0.00 0.21 0.01 56 1015.3
20260510153103 53 305 10.0 20.0 0.00 0.21 0.01 54 1015.2
20260510152603 54 17 6.0 10.0 0.00 0.21 0.01 58 1015.2
20260510152103 53 292 8.0 15.0 0.00 0.21 0.01 54 1015.2
20260510151603 53 341 5.0 12.0 0.00 0.21 0.01 61 1015.2
20260510150603 53 289 7.0 13.0 0.00 0.21 0.01 59 1015.1
20260510150103 53 309 6.0 13.0 0.00 0.21 0.01 59 1015.0
20260510145102 52 343 7.0 14.0 0.00 0.21 0.01 59 1014.8
20260510144602 51 317 9.0 15.0 0.00 0.21 0.01 60 1014.7
20260510144103 53 355 10.0 17.0 0.00 0.21 0.01 60 1014.7
20260510143604 52 6 6.0 10.0 0.00 0.21 0.01 59 1014.5
20260510143103 52 295 5.0 14.0 0.00 0.21 0.01 59 1014.5
20260510142603 52 354 6.0 14.0 0.00 0.21 0.01 59 1014.5
20260510142103 51 349 6.0 16.0 0.00 0.21 0.01 61 1014.4
20260510141603 51 339 9.0 15.0 0.00 0.21 0.01 61 1014.3
20260510141103 51 2 9.0 18.0 0.00 0.21 0.01 60 1014.3
20260510140603 51 4 8.0 20.0 0.00 0.21 0.01 59 1014.3
20260510135603 51 317 5.0 12.0 0.00 0.21 0.01 62 1014.1
20260510135103 51 331 10.0 20.0 0.00 0.21 0.01 60 1014.0
20260510133603 50 330 9.0 15.0 0.00 0.21 0.01 63 1013.8
20260510133103 51 312 7.0 13.0 0.00 0.21 0.01 62 1013.6
20260510132603 51 325 7.0 13.0 0.00 0.21 0.01 64 1013.6
20260510131603 51 355 7.0 13.0 0.00 0.21 0.01 61 1013.5
20260510131103 50 330 5.0 12.0 0.00 0.21 0.01 66 1013.5
20260510125603 49 6 5.0 12.0 0.00 0.21 0.01 65 1013.4
20260510125103 49 344 3.0 12.0 0.00 0.21 0.01 69 1013.4
20260510124603 49 23 4.0 12.0 0.00 0.21 0.01 66 1013.3
20260510124103 49 356 6.0 12.0 0.00 0.21 0.01 69 1013.2
20260510122604 48 341 6.0 12.0 0.00 0.21 0.01 69 1013.2
20260510122102 48 336 8.0 13.0 0.00 0.21 0.01 69 1013.2
20260510121103 48 358 5.0 12.0 0.00 0.21 0.01 69 1013.0
20260510120604 48 330 6.0 12.0 0.00 0.21 0.01 70 1013.0
20260510115603 47 321 3.0 9.0 0.00 0.21 0.01 71 1012.8
20260510115103 47 326 5.0 12.0 0.00 0.21 0.01 71 1012.7
20260510114603 47 0 6.0 10.0 0.00 0.21 0.01 71 1012.5
20260510114103 46 343 3.0 10.0 0.00 0.21 0.01 74 1012.5
20260510113103 45 348 5.0 8.0 0.00 0.21 0.01 76 1012.3
20260510112603 44 333 3.0 8.0 0.00 0.21 0.01 77 1012.2
20260510112103 44 338 5.0 10.0 0.00 0.21 0.01 77 1012.1
20260510111603 44 336 5.0 9.0 0.00 0.21 0.01 77 1012.1
20260510111103 44 311 5.0 8.0 0.00 0.21 0.01 77 1011.9
20260510110104 44 320 3.0 8.0 0.00 0.21 0.01 78 1011.8
20260510105603 44 330 3.0 7.0 0.00 0.21 0.01 78 1011.6
20260510105103 44 293 2.0 8.0 0.00 0.21 0.01 78 1011.6
20260510104603 44 302 3.0 6.0 0.00 0.21 0.01 78 1011.4
20260510104103 44 332 2.0 7.0 0.00 0.21 0.01 78 1011.2
20260510103603 44 315 2.0 3.0 0.00 0.21 0.01 79 1011.2
20260510103102 44 335 3.0 7.0 0.00 0.21 0.01 79 1011.0
20260510101603 43 328 2.0 3.0 0.00 0.21 0.01 79 1010.6
20260510101104 44 350 2.0 3.0 0.00 0.21 0.01 78 1010.5
20260510100603 44 318 3.0 8.0 0.00 0.21 0.01 78 1010.4
20260510095603 44 333 3.0 8.0 0.00 0.21 0.01 77 1010.3
20260510095102 45 346 3.0 7.0 0.00 0.21 0.01 77 1010.2
20260510094603 45 346 3.0 8.0 0.00 0.21 0.01 76 1010.2
20260510094103 45 345 3.0 9.0 0.00 0.21 0.01 76 1010.1
20260510093603 45 357 3.0 9.0 0.00 0.21 0.01 76 1010.1
20260510093104 46 319 4.0 9.0 0.00 0.21 0.01 76 1010.2
20260510092603 46 330 3.0 8.0 0.00 0.21 0.01 76 1010.2
20260510092103 46 335 5.0 9.0 0.00 0.21 0.01 76 1010.0
20260510091603 46 345 6.0 12.0 0.00 0.21 0.01 76 1009.9
20260510091103 46 0 2.0 8.0 0.00 0.21 0.01 77 1009.7
20260510090103 46 326 5.0 9.0 0.00 0.21 0.01 79 1009.6
20260510085105 46 342 3.0 7.0 0.00 0.21 0.01 80 1009.2
20260510084603 46 339 5.0 7.0 0.00 0.21 0.01 81 1009.4
20260510083603 47 330 2.0 3.0 0.00 0.21 0.01 81 1009.3
20260510083104 47 334 1.0 3.0 0.00 0.21 0.01 81 1009.2
20260510082104 47 317 2.0 10.0 0.00 0.21 0.01 81 1009.4
20260510081603 47 327 2.0 6.0 0.00 0.21 0.01 80 1009.0
20260510081103 47 338 2.0 7.0 0.00 0.21 0.01 80 1008.8
20260510080603 47 15 3.0 7.0 0.00 0.21 0.01 80 1008.7
20260510080104 47 321 2.0 8.0 0.00 0.21 0.01 81 1008.8
20260510075603 47 328 3.0 6.0 0.00 0.21 0.01 81 1009.0
20260510074603 48 328 3.0 8.0 0.00 0.21 0.01 82 1008.8
20260510074103 48 327 2.0 3.0 0.00 0.21 0.01 82 1008.6
20260510073603 48 342 3.0 6.0 0.00 0.21 0.01 83 1008.6
20260510073103 48 338 3.0 7.0 0.00 0.21 0.01 83 1008.6
20260510072603 48 345 2.0 3.0 0.00 0.21 0.01 84 1008.4
20260510072103 48 330 2.0 3.0 0.00 0.21 0.01 84 1008.3
20260510071603 48 332 2.0 6.0 0.00 0.21 0.01 85 1008.3
20260510071103 48 324 2.0 8.0 0.00 0.21 0.01 85 1008.2
20260510070603 48 346 2.0 7.0 0.00 0.21 0.01 86 1008.3
20260510070104 48 348 3.0 8.0 0.00 0.21 0.01 86 1008.2
20260510065603 48 343 3.0 7.0 0.00 0.21 0.01 87 1008.2
20260510063103 48 342 2.0 3.0 0.00 0.21 0.01 89 1007.8
20260510062603 48 349 1.0 3.0 0.00 0.21 0.01 89 1007.7
20260510061604 49 336 1.0 2.0 0.00 0.21 0.01 90 1007.6
20260510061103 49 336 0.0 1.0 0.00 0.21 0.01 90 1007.5
20260510055603 49 7 1.0 7.0 0.00 0.21 0.01 92 1007.6
20260510055103 49 355 1.0 3.0 0.00 0.21 0.01 93 1007.7
20260510054603 49 350 2.0 3.0 0.00 0.21 0.01 94 1007.6
20260510054103 49 349 2.0 3.0 0.00 0.21 0.01 94 1007.6
20260510053603 49 346 2.0 7.0 0.00 0.21 0.01 94 1007.6
20260510053104 50 354 4.0 8.0 0.00 0.21 0.01 95 1007.5
20260510052603 50 6 6.0 9.0 0.00 0.21 0.01 95 1007.5
20260510052103 51 339 3.0 7.0 0.01 0.21 0.01 96 1007.1
20260510051603 51 346 4.0 8.0 0.01 0.21 0.01 96 1007.2
20260510051103 51 344 3.0 7.0 0.01 0.21 0.01 95 1007.2
20260510050603 51 341 1.0 6.0 0.01 0.21 0.01 95 1006.9
20260510050104 51 347 2.0 3.0 0.01 0.21 0.01 95 1006.8
20260510045605 51 287 2.0 6.0 0.01 0.21 0.01 96 1007.1
20260510045103 51 298 2.0 6.0 0.01 0.21 0.01 95 1007.1
20260510044605 50 312 2.0 7.0 0.01 0.21 0.01 95 1006.9
20260510044104 50 299 3.0 6.0 0.01 0.21 0.01 95 1006.8
20260510043603 50 281 2.0 3.0 0.01 0.21 0.01 95 1006.8
20260510043104 50 293 2.0 3.0 0.01 0.21 0.01 94 1006.6
20260510042603 50 281 1.0 3.0 0.01 0.21 0.01 95 1006.4
20260510042103 51 297 1.0 3.0 0.00 0.20 0.00 94 1006.2
20260510041603 51 287 3.0 5.0 0.00 0.20 0.00 94 1005.9
20260510041103 51 265 1.0 3.0 0.00 0.20 0.00 95 1006.0
20260510040603 51 263 2.0 6.0 0.00 0.20 0.00 95 1005.8
20260510035604 51 247 3.0 3.0 0.00 0.20 0.20 94 1005.7
20260510035104 51 262 3.0 8.0 0.00 0.20 0.20 94 1005.6
20260510034604 51 252 2.0 6.0 0.00 0.20 0.20 94 1005.5
20260510034103 51 251 3.0 7.0 0.00 0.20 0.20 94 1005.6
20260510033604 52 283 2.0 5.0 0.00 0.20 0.20 94 1005.6
20260510033103 52 271 2.0 6.0 0.00 0.20 0.20 94 1005.5
20260510031604 52 268 3.0 7.0 0.00 0.20 0.20 94 1005.6
20260510031103 51 251 3.0 5.0 0.00 0.20 0.20 94 1005.6
20260510030603 51 281 3.0 5.0 0.00 0.20 0.20 94 1005.6
20260510030103 51 271 4.0 10.0 0.00 0.20 0.20 94 1005.6
20260510025104 51 262 3.0 6.0 0.00 0.20 0.20 94 1005.6
20260510024605 51 278 2.0 5.0 0.00 0.20 0.20 94 1005.6
20260510024105 51 282 3.0 6.0 0.00 0.20 0.20 94 1005.5
20260510023603 51 284 2.0 5.0 0.00 0.20 0.20 94 1005.3
20260510022603 51 268 3.0 9.0 0.00 0.20 0.20 94 1005.2
20260510022103 51 265 3.0 5.0 0.00 0.20 0.20 94 1005.2
20260510021603 51 255 3.0 8.0 0.00 0.20 0.20 94 1005.1
20260510021103 51 269 3.0 9.0 0.00 0.20 0.20 94 1005.1
20260510015603 51 270 3.0 10.0 0.00 0.20 0.20 94 1004.9
20260510015104 51 259 3.0 8.0 0.00 0.20 0.20 93 1005.0
20260510014604 51 263 3.0 13.0 0.00 0.20 0.20 93 1005.0
20260510014103 51 252 5.0 12.0 0.00 0.20 0.20 93 1005.0
20260510013605 51 256 4.0 9.0 0.00 0.20 0.20 93 1004.9
20260510013103 51 262 3.0 9.0 0.00 0.20 0.20 93 1004.7
20260510012603 51 257 3.0 9.0 0.00 0.20 0.20 93 1004.7
20260510012103 51 260 5.0 10.0 0.00 0.20 0.20 94 1004.7
20260510011603 51 276 3.0 8.0 0.00 0.20 0.20 94 1004.6
20260510011103 51 251 6.0 13.0 0.00 0.20 0.20 94 1004.6
20260510010603 51 258 3.0 10.0 0.00 0.20 0.20 94 1004.5
20260510010104 51 251 3.0 12.0 0.00 0.20 0.20 94 1004.4
20260510005603 51 250 3.0 9.0 0.00 0.20 0.20 93 1004.2
20260510005103 51 256 3.0 6.0 0.00 0.20 0.20 94 1004.0
20260510004604 51 250 4.0 8.0 0.00 0.20 0.20 94 1003.9
20260510004104 51 254 5.0 12.0 0.00 0.20 0.20 94 1003.9
20260510003608 51 261 4.0 12.0 0.01 0.20 0.20 94 1003.9
20260510003104 51 233 5.0 9.0 0.01 0.20 0.20 94 1003.9
20260510001603 51 267 2.0 10.0 0.07 0.20 0.20 93 1003.9
20260510001105 51 240 3.0 9.0 0.10 0.20 0.20 93 1003.8
20260510000103 51 262 3.0 8.0 0.16 0.20 0.20 93 1003.8
20260509234603 51 274 2.0 8.0 0.20 0.20 0.20 92 1002.9
20260509234103 51 232 4.0 9.0 0.20 0.20 0.20 92 1002.9
20260509233603 52 256 5.0 9.0 0.19 0.19 0.19 91 1003.8
20260509233103 52 290 4.0 12.0 0.19 0.19 0.19 91 1004.3
20260509232604 52 297 6.0 15.0 0.17 0.17 0.17 91 1004.2
20260509232103 52 305 7.0 15.0 0.15 0.15 0.15 90 1004.2
20260509231103 53 330 6.0 20.0 0.10 0.10 0.10 88 1004.3
20260509230104 56 338 14.0 32.0 0.04 0.04 0.04 80 1004.4
20260509225104 62 299 3.0 9.0 0.00 0.00 0.00 74 1002.4
20260509224603 62 233 3.0 8.0 0.00 0.00 0.00 73 1001.9
20260509224104 62 242 1.0 3.0 0.00 0.00 0.00 73 1001.8
20260509223604 62 209 1.0 2.0 0.00 0.00 0.00 73 1001.7
20260509222603 62 240 2.0 6.0 0.00 0.00 0.00 72 1001.7
20260509222104 62 240 2.0 7.0 0.00 0.00 0.00 73 1001.8
20260509221104 62 215 1.0 3.0 0.00 0.00 0.00 72 1001.9
20260509220603 62 220 1.0 6.0 0.00 0.00 0.00 72 1001.9
20260509215603 62 259 2.0 7.0 0.00 0.00 0.00 71 1002.2
20260509215103 62 255 2.0 8.0 0.00 0.00 0.00 70 1002.2
20260509214603 62 246 3.0 7.0 0.00 0.00 0.00 71 1002.2
20260509214103 63 252 3.0 9.0 0.00 0.00 0.00 70 1002.2
20260509213604 63 235 2.0 5.0 0.00 0.00 0.00 71 1002.2
20260509213103 63 235 1.0 5.0 0.00 0.00 0.00 71 1002.3
20260509212605 63 247 3.0 6.0 0.00 0.00 0.00 71 1002.1
20260509211603 63 270 4.0 12.0 0.00 0.00 0.00 70 1002.4
20260509211103 63 284 3.0 10.0 0.00 0.00 0.00 71 1002.6
20260509210603 64 249 3.0 7.0 0.00 0.00 0.00 71 1002.7
20260509210104 64 299 4.0 10.0 0.00 0.00 0.00 71 1002.7
20260509205103 64 289 3.0 9.0 0.00 0.00 0.00 70 1002.7
20260509204104 64 281 5.0 10.0 0.00 0.00 0.00 71 1002.8
20260509203603 63 279 3.0 6.0 0.00 0.00 0.00 71 1002.7
20260509203103 63 285 4.0 10.0 0.00 0.00 0.00 69 1002.8
20260509202603 63 248 6.0 13.0 0.00 0.00 0.00 68 1002.7
20260509202103 64 277 5.0 14.0 0.00 0.00 0.00 68 1002.9
20260509201603 64 276 5.0 10.0 0.00 0.00 0.00 67 1002.8